Location: Lake Crest
(37.6062°N, 88.9176°W)
Time: 07:50:54
(UTC+00:00)

S3M - Pass Details

Date: 15 December 2019
Orbit: 948 x 1005 km, 83.0° (Epoch: 28 January)

Event Time Altitude Azimuth Distance (km) Brightness Sun altitude
Rises 00:24:48 0° 353° (N) 3,663 6.9 -20.5°
Reaches altitude 10° 00:27:19 10° 354° (N) 2,705 6.2 -20.9°
Maximum altitude 00:33:31 89° 82° (E) 960 3.9 -22.1°
Drops below altitude 10° 00:39:37 10° 175° (S) 2,664 6.4 -23.3°
Sets 00:42:05 0° 175° (S) 3,603 7.1 -23.8°
